Weather History for Defuniak Springs, Defuniak Sp, FL

Change the Weather History Date:

Sunday, January 12, 2014

  Actual Average (KCEW) Record (KCEW)
Temperature  
Mean Temperature 50 °F -  
Max Temperature 64 °F 55 °F 78 °F (2013)
Min Temperature 36 °F 36 °F 14 °F (1981)
Degree Days  
Heating Degree Days 15    
Moisture  
Dew Point 38 °F    
Average Humidity 67    
Maximum Humidity 99    
Minimum Humidity 31    
Precipitation  
Precipitation 0.07 in - - ()
Sea Level Pressure  
Sea Level Pressure 30.16 in    
Wind  
Wind Speed 3 mph (SSW)    
Max Wind Speed 7 mph    
Max Gust Speed -    
Visibility 10 miles    
Events      
Averages and records for this station are not official NWS values.
T = Trace of Precipitation, MM = Missing Value Source: NWS Daily Summary

Daily Weather History Graph

Daily Weather History Graph

Search for Another Location

Airport:

Trip Planner

Search our weather history database for the weather conditions in past years. The results will help you decide how hot, cold, wet, or windy it might be!

Date:

Astronomy

Jan. 12, 2014 Rise Set
Actual Time 6:43 AM CST 5:03 PM CST
Civil Twilight 6:16 AM CST 5:29 PM CST
Nautical Twilight 5:47 AM CST 5:58 PM CST
Astronomical Twilight 5:18 AM CST 6:28 PM CST
Moon 2:29 PM CST (1/12) 3:43 AM CST (1/12)
Length of Visible Light 11h 12m
Length of Day
10h 20m
Waxing Gibbous, 90% of the Moon is Illuminated
Jan 12
Waxing Gibbous
Jan 15
Full
Jan 23
Last Quarter
Jan 30
New
Feb 6
First Quarter

Hourly Weather History & Observations

Time (CST) Temp. Windchill Dew Point Humidity Pressure Visibility Wind Dir Wind Speed Gust Speed Precip Events Conditions
12:15 AM 48.6 °F - 33.3 °F 56% 30.08 in 10.0 mi WNW 4.6 mph - N/A   Clear
12:35 AM 48.0 °F - 33.8 °F 58% 30.08 in 10.0 mi NW 3.5 mph - N/A   Clear
12:55 AM 46.9 °F - 34.7 °F 62% 30.09 in 10.0 mi West 3.5 mph - N/A   Clear
1:15 AM 46.8 °F - 34.3 °F 62% 30.09 in 10.0 mi West 3.5 mph - 0.01 in   Clear
1:35 AM 46.8 °F - 34.7 °F 63% 30.10 in 10.0 mi West 3.5 mph - 0.01 in   Clear
1:55 AM 46.4 °F - 34.7 °F 64% 30.10 in 10.0 mi Calm Calm - 0.01 in   Clear
2:15 AM 43.7 °F - 36.3 °F 75% 30.10 in 10.0 mi Calm Calm - N/A   Clear
2:35 AM 41.5 °F - 37.4 °F 85% 30.10 in 10.0 mi Calm Calm - N/A   Clear
2:55 AM 43.3 °F - 36.3 °F 76% 30.11 in 10.0 mi Calm Calm - N/A   Clear
3:15 AM 44.6 °F 43.1 °F 35.1 °F 69% 30.12 in 10.0 mi WNW 3.5 mph - N/A   Clear
3:35 AM 40.8 °F 36.9 °F 36.5 °F 85% 30.12 in 10.0 mi NW 5.8 mph - N/A   Clear
3:55 AM 41.4 °F 36.8 °F 36.5 °F 83% 30.12 in 10.0 mi NNW 6.9 mph - N/A   Clear
4:15 AM 42.8 °F 39.3 °F 35.6 °F 76% 30.12 in 10.0 mi NNW 5.8 mph - N/A   Clear
4:35 AM 41.4 °F - 36.0 °F 81% 30.13 in 10.0 mi Calm Calm - N/A   Clear
4:55 AM 40.5 °F 35.8 °F 35.6 °F 83% 30.13 in 10.0 mi NNW 6.9 mph - N/A   Clear
5:15 AM 41.0 °F 37.1 °F 35.6 °F 81% 30.13 in 10.0 mi NW 5.8 mph - N/A   Clear
5:35 AM 37.8 °F 34.2 °F 35.6 °F 92% 30.15 in 10.0 mi WSW 4.6 mph - N/A   Clear
5:55 AM 37.4 °F - 35.2 °F 92% 30.15 in 10.0 mi Calm Calm - N/A   Clear
6:15 AM 36.1 °F - 35.8 °F 99% 30.15 in 10.0 mi Calm Calm - N/A   Clear
6:35 AM 37.4 °F - 35.6 °F 93% 30.16 in 10.0 mi Calm Calm - N/A   Clear
6:55 AM 36.5 °F - 35.8 °F 97% 30.17 in 10.0 mi Calm Calm - N/A   Clear
7:15 AM 36.5 °F - 35.8 °F 97% 30.18 in 10.0 mi Calm Calm - N/A   Clear
7:35 AM 41.2 °F - 38.3 °F 89% 30.19 in 10.0 mi Calm Calm - N/A   Clear
7:55 AM 44.2 °F - 38.8 °F 81% 30.20 in 10.0 mi Calm Calm - 0.01 in   Clear
8:15 AM 47.7 °F - 38.8 °F 71% 30.21 in 10.0 mi Calm Calm - N/A   Clear
8:35 AM 49.6 °F - 39.2 °F 67% 30.22 in 10.0 mi Calm Calm - N/A   Clear
8:55 AM 51.6 °F - 39.9 °F 64% 30.23 in 10.0 mi Calm Calm - N/A   Clear
9:15 AM 53.1 °F - 39.2 °F 59% 30.23 in 10.0 mi Calm Calm - 0.01 in   Clear
9:35 AM 54.7 °F - 40.3 °F 58% 30.24 in 10.0 mi Calm Calm - 0.02 in   Clear
9:55 AM 56.5 °F - 39.4 °F 53% 30.23 in 10.0 mi Calm Calm - 0.03 in   Clear
10:15 AM 58.3 °F - 38.1 °F 47% 30.23 in 10.0 mi Calm Calm - 0.01 in   Clear
10:35 AM 59.0 °F - 35.6 °F 42% 30.22 in 10.0 mi ENE 3.5 mph - 0.01 in   Clear
10:55 AM 59.4 °F - 36.0 °F 42% 30.21 in 10.0 mi Calm Calm - 0.02 in   Clear
11:15 AM 59.7 °F - 36.1 °F 41% 30.21 in 10.0 mi Calm Calm - N/A   Clear
11:35 AM 60.3 °F - 36.0 °F 40% 30.20 in 10.0 mi Calm Calm - N/A   Clear
11:55 AM 61.3 °F - 35.6 °F 38% 30.18 in 10.0 mi Calm Calm - N/A   Clear
12:15 PM 62.1 °F - 36.5 °F 39% 30.18 in 10.0 mi SE 4.6 mph - N/A   Clear
12:30 PM 62.4 °F - 35.2 °F 36% 30.17 in 10.0 mi ENE 3.5 mph - N/A   Clear
12:55 PM 62.8 °F - 33.1 °F 33% 30.16 in 10.0 mi Calm Calm - N/A   Clear
1:15 PM 63.0 °F - 32.9 °F 32% 30.16 in 10.0 mi Calm Calm - N/A   Clear
1:35 PM 64.4 °F - 34.5 °F 33% 30.16 in 10.0 mi Calm Calm - N/A   Clear
1:55 PM 63.9 °F - 35.2 °F 35% 30.15 in 10.0 mi Calm Calm - N/A   Clear
2:15 PM 63.7 °F - 34.7 °F 34% 30.15 in 10.0 mi Calm Calm - N/A   Clear
2:35 PM 64.2 °F - 33.3 °F 32% 30.15 in 10.0 mi Calm Calm - N/A   Clear
2:55 PM 63.7 °F - 32.4 °F 31% 30.15 in 10.0 mi Calm Calm - N/A   Clear
3:15 PM 64.8 °F - 33.1 °F 31% 30.14 in 10.0 mi SSW 4.6 mph - N/A   Clear
3:35 PM 64.4 °F - 33.3 °F 31% 30.15 in 10.0 mi South 4.6 mph - N/A   Clear
3:55 PM 63.7 °F - 33.8 °F 33% 30.15 in 10.0 mi Calm Calm - N/A   Clear
4:15 PM 62.4 °F - 36.9 °F 39% 30.15 in 10.0 mi South 5.8 mph - N/A   Clear
4:35 PM 60.1 °F - 37.8 °F 44% 30.15 in 10.0 mi SSW 5.8 mph - N/A   Clear
4:55 PM 57.9 °F - 36.9 °F 45% 30.16 in 10.0 mi SSW 3.5 mph - N/A   Clear
5:15 PM 54.5 °F - 39.7 °F 57% 30.16 in 10.0 mi South 4.6 mph - N/A   Clear
5:35 PM 53.1 °F - 40.6 °F 63% 30.16 in 10.0 mi SSW 4.6 mph - N/A   Clear
5:55 PM 52.0 °F - 41.2 °F 67% 30.17 in 10.0 mi SSW 3.5 mph - N/A   Clear
6:15 PM 50.9 °F - 41.5 °F 70% 30.17 in 10.0 mi SSW 3.5 mph - N/A   Clear
6:35 PM 50.2 °F - 41.9 °F 73% 30.18 in 10.0 mi SSW 3.5 mph - N/A   Clear
6:55 PM 48.0 °F - 42.1 °F 80% 30.18 in 10.0 mi SSW 3.5 mph - N/A   Clear
7:15 PM 47.1 °F - 42.3 °F 83% 30.18 in 10.0 mi SSW 3.5 mph - N/A   Clear
7:35 PM 48.0 °F - 42.1 °F 80% 30.18 in 10.0 mi Calm Calm - N/A   Clear
7:55 PM 45.7 °F - 42.4 °F 88% 30.19 in 10.0 mi Calm Calm - N/A   Clear
8:15 PM 45.5 °F 44.2 °F 42.1 °F 88% 30.19 in 10.0 mi South 3.5 mph - N/A   Clear
8:35 PM 44.6 °F 43.1 °F 41.7 °F 90% 30.19 in 10.0 mi SSE 3.5 mph - N/A   Clear
8:55 PM 44.4 °F 42.9 °F 41.9 °F 91% 30.19 in 10.0 mi SSE 3.5 mph - N/A   Clear
9:15 PM 45.1 °F 43.7 °F 42.1 °F 89% 30.18 in 10.0 mi SSE 3.5 mph - N/A   Clear
9:35 PM 45.0 °F 43.5 °F 42.1 °F 90% 30.19 in 10.0 mi South 3.5 mph - N/A   Clear
9:55 PM 44.6 °F 43.1 °F 42.1 °F 91% 30.18 in 10.0 mi SSE 3.5 mph - N/A   Clear
10:15 PM 44.4 °F 42.0 °F 41.9 °F 91% 30.18 in 10.0 mi SSE 4.6 mph - N/A   Clear
10:35 PM 45.0 °F 43.5 °F 42.4 °F 91% 30.18 in 10.0 mi SSE 3.5 mph - N/A   Clear
10:55 PM 45.1 °F 43.7 °F 42.8 °F 91% 30.18 in 10.0 mi SE 3.5 mph - N/A   Clear
11:15 PM 45.0 °F 43.5 °F 43.0 °F 93% 30.18 in 10.0 mi SSE 3.5 mph - N/A   Clear
11:35 PM 45.5 °F 44.2 °F 43.7 °F 93% 30.17 in 10.0 mi SE 3.5 mph - N/A   Clear
11:55 PM 45.9 °F - 43.5 °F 92% 30.16 in 10.0 mi Calm Calm - N/A   Clear